TimePDT,TemperatureF,Dew PointF,Humidity,Sea Level PressureIn,VisibilityMPH,Wind Direction,Wind SpeedMPH,Gust SpeedMPH,PrecipitationIn,Events,Conditions,WindDirDegrees,DateUTC
12:33 AM,51.8,46.4,82,30.17,8.0,Calm,Calm,-,N/A,,Mostly Cloudy,0,2013-07-03 07:33:00
12:53 AM,54.0,48.0,80,30.17,8.0,Calm,Calm,-,N/A,,Mostly Cloudy,0,2013-07-03 07:53:00
1:53 AM,54.0,48.9,83,30.18,8.0,Calm,Calm,-,N/A,,Overcast,0,2013-07-03 08:53:00
2:53 AM,54.0,48.9,83,30.18,8.0,Calm,Calm,-,N/A,,Overcast,0,2013-07-03 09:53:00
3:10 AM,53.6,50.0,88,30.18,8.0,Calm,Calm,-,N/A,,Overcast,0,2013-07-03 10:10:00
3:37 AM,53.6,50.0,88,30.18,8.0,Calm,Calm,-,N/A,,Overcast,0,2013-07-03 10:37:00
3:53 AM,55.0,50.0,83,30.17,8.0,Calm,Calm,-,N/A,,Overcast,0,2013-07-03 10:53:00
4:53 AM,55.0,50.0,83,30.17,8.0,Calm,Calm,-,N/A,,Overcast,0,2013-07-03 11:53:00
5:53 AM,55.9,51.1,84,30.18,6.0,Calm,Calm,-,N/A,,Haze,0,2013-07-03 12:53:00
6:53 AM,55.9,51.1,84,30.18,7.0,Calm,Calm,-,N/A,,Overcast,0,2013-07-03 13:53:00
7:53 AM,59.0,53.1,81,30.19,7.0,Calm,Calm,-,N/A,,Overcast,0,2013-07-03 14:53:00
8:53 AM,61.0,54.0,78,30.20,7.0,Calm,Calm,-,N/A,,Overcast,0,2013-07-03 15:53:00
9:53 AM,61.0,53.1,75,30.21,7.0,West,6.9,-,N/A,,Overcast,270,2013-07-03 16:53:00
10:53 AM,62.1,52.0,70,30.21,7.0,NW,3.5,-,N/A,,Overcast,320,2013-07-03 17:53:00
11:53 AM,63.0,53.1,70,30.21,7.0,West,5.8,-,N/A,,Overcast,280,2013-07-03 18:53:00
12:53 PM,64.0,53.1,67,30.21,7.0,WNW,6.9,-,N/A,,Overcast,300,2013-07-03 19:53:00
1:53 PM,64.9,54.0,68,30.19,7.0,WNW,6.9,-,N/A,,Overcast,300,2013-07-03 20:53:00
2:36 PM,66.2,53.6,64,30.18,7.0,NW,8.1,-,N/A,,Scattered Clouds,310,2013-07-03 21:36:00
2:53 PM,66.9,54.0,63,30.18,8.0,West,11.5,-,N/A,,Scattered Clouds,280,2013-07-03 21:53:00
3:53 PM,66.9,53.1,61,30.17,8.0,NNW,9.2,-,N/A,,Clear,330,2013-07-03 22:53:00
4:53 PM,66.9,54.0,63,30.16,8.0,WNW,8.1,-,N/A,,Clear,290,2013-07-03 23:53:00
5:53 PM,62.1,52.0,70,30.16,7.0,NNW,11.5,-,N/A,,Scattered Clouds,340,2013-07-04 00:53:00
6:00 PM,62.6,51.8,68,30.15,7.0,NNW,12.7,17.3,N/A,,Mostly Cloudy,330,2013-07-04 01:00:00
6:53 PM,62.1,52.0,70,30.16,7.0,NW,9.2,-,N/A,,Overcast,310,2013-07-04 01:53:00
7:53 PM,61.0,52.0,72,30.16,7.0,Variable,6.9,-,N/A,,Overcast,0,2013-07-04 02:53:00
8:53 PM,60.1,52.0,75,30.15,7.0,Variable,4.6,-,N/A,,Overcast,0,2013-07-04 03:53:00
9:53 PM,60.1,53.1,78,30.15,8.0,Variable,3.5,-,N/A,,Overcast,0,2013-07-04 04:53:00
10:08 PM,60.8,53.6,77,30.15,8.0,Calm,Calm,-,N/A,,Overcast,0,2013-07-04 05:08:00
10:23 PM,60.8,53.6,77,30.15,8.0,NW,3.5,-,N/A,,Overcast,320,2013-07-04 05:23:00
10:53 PM,59.0,53.1,81,30.16,8.0,Calm,Calm,-,N/A,,Overcast,0,2013-07-04 05:53:00
11:53 PM,59.0,53.1,81,30.15,8.0,WNW,4.6,-,N/A,,Overcast,300,2013-07-04 06:53:00